| time (UTC) | temp C | wind direction | speed KPH | gust KPH | rain 1hr cm | rain 24hr cm | rain mn cm | humidity % | barometer mb |
| 20260504100443 | 6 | 272 | 0.0 | 0.0 | 0.00 | 0.00 | 0.00 | 86 | 1015.3 |
| 20260504080511 | 6 | 317 | 0.0 | 0.0 | 0.00 | 0.00 | 0.00 | 86 | 1015.8 |
| 20260504050459 | 5 | 317 | 0.0 | 0.0 | 0.00 | 0.00 | 0.00 | 83 | 1016.1 |
| 20260504044959 | 5 | 317 | 0.0 | 0.0 | 0.00 | 0.00 | 0.00 | 83 | 1016.0 |
| 20260504043457 | 5 | 317 | 0.0 | 0.0 | 0.00 | 0.00 | 0.00 | 83 | 1015.9 |
| 20260504041954 | 5 | 317 | 0.0 | 0.0 | 0.00 | 0.00 | 0.00 | 83 | 1016.0 |
| 20260504040450 | 5 | 317 | 0.0 | 0.0 | 0.00 | 0.00 | 0.00 | 83 | 1015.7 |
| 20260504035019 | 4 | 317 | 0.0 | 0.0 | 0.00 | 0.00 | 0.00 | 83 | 1015.8 |
| 20260504033519 | 4 | 317 | 0.0 | 0.0 | 0.00 | 0.00 | 0.00 | 82 | 1015.9 |
| 20260504031950 | 4 | 317 | 0.0 | 0.0 | 0.00 | 0.00 | 0.00 | 81 | 1015.9 |
| 20260504030501 | 4 | 317 | 0.0 | 0.0 | 0.00 | 0.00 | 0.00 | 79 | 1015.9 |
| 20260504024955 | 5 | 317 | 0.0 | 0.0 | 0.00 | 0.00 | 0.00 | 78 | 1015.9 |
| 20260504023458 | 5 | 317 | 0.0 | 0.0 | 0.00 | 0.00 | 0.00 | 77 | 1015.9 |
| 20260504021936 | 5 | 317 | 0.0 | 0.0 | 0.00 | 0.00 | 0.00 | 76 | 1015.7 |
| 20260504020442 | 6 | 317 | 0.0 | 0.0 | 0.00 | 0.00 | 0.00 | 74 | 1015.7 |
| 20260504014938 | 6 | 317 | 0.0 | 0.0 | 0.00 | 0.00 | 0.00 | 73 | 1015.4 |
| 20260504013440 | 6 | 317 | 0.0 | 1.6 | 0.00 | 0.00 | 0.00 | 72 | 1015.4 |
| 20260504011940 | 7 | 317 | 0.0 | 1.6 | 0.00 | 0.00 | 0.00 | 70 | 1015.2 |
| 20260504010446 | 8 | 317 | 0.0 | 0.0 | 0.00 | 0.00 | 0.00 | 65 | 1015.0 |
| 20260504004944 | 8 | 317 | 0.0 | 0.0 | 0.00 | 0.00 | 0.00 | 60 | 1014.9 |
| 20260504001937 | 11 | 317 | 0.0 | 1.6 | 0.00 | 0.00 | 0.00 | 56 | 1014.7 |
| 20260504000441 | 13 | 317 | 0.0 | 0.0 | 0.00 | 0.00 | 0.00 | 46 | 1014.7 |
| 20260503234941 | 15 | 317 | 0.0 | 0.0 | 0.00 | 0.00 | 0.00 | 40 | 1014.7 |
| 20260503233441 | 16 | 317 | 0.0 | 1.6 | 0.00 | 0.00 | 0.00 | 34 | 1014.5 |
| 20260503232018 | 16 | 277 | 3.2 | 6.4 | 0.00 | 0.00 | 0.00 | 27 | 1014.5 |
| 20260503230459 | 17 | 306 | 3.2 | 6.4 | 0.00 | 0.00 | 0.00 | 27 | 1014.5 |
| 20260503224959 | 17 | 223 | 4.8 | 11.3 | 0.00 | 0.00 | 0.00 | 26 | 1014.3 |
| 20260503223444 | 17 | 257 | 4.8 | 12.9 | 0.00 | 0.00 | 0.00 | 27 | 1014.4 |
| 20260503221953 | 18 | 37 | 4.8 | 11.3 | 0.00 | 0.00 | 0.00 | 25 | 1014.5 |
| 20260503220441 | 18 | 314 | 4.8 | 14.5 | 0.00 | 0.00 | 0.00 | 26 | 1014.5 |
| 20260503214959 | 17 | 224 | 4.8 | 12.9 | 0.00 | 0.00 | 0.00 | 27 | 1014.6 |
| 20260503213440 | 17 | 231 | 8.0 | 12.9 | 0.00 | 0.00 | 0.00 | 27 | 1014.5 |
| 20260503211952 | 18 | 355 | 8.0 | 16.1 | 0.00 | 0.00 | 0.00 | 26 | 1014.8 |
| 20260503210438 | 17 | 317 | 9.7 | 17.7 | 0.00 | 0.00 | 0.00 | 26 | 1014.7 |
| 20260503205017 | 17 | 225 | 4.8 | 20.9 | 0.00 | 0.00 | 0.00 | 27 | 1014.8 |
| 20260503203439 | 17 | 214 | 6.4 | 14.5 | 0.00 | 0.00 | 0.00 | 28 | 1014.8 |
| 20260503201938 | 17 | 348 | 6.4 | 16.1 | 0.00 | 0.00 | 0.00 | 30 | 1015.1 |
| 20260503200442 | 17 | 360 | 8.0 | 19.3 | 0.00 | 0.00 | 0.00 | 28 | 1015.2 |
| 20260503194939 | 17 | 252 | 6.4 | 14.5 | 0.00 | 0.00 | 0.00 | 29 | 1015.6 |
| 20260503193446 | 17 | 302 | 6.4 | 12.9 | 0.00 | 0.00 | 0.00 | 29 | 1015.8 |
| 20260503191936 | 16 | 234 | 4.8 | 11.3 | 0.00 | 0.00 | 0.00 | 30 | 1016.0 |
| 20260503190440 | 16 | 5 | 4.8 | 16.1 | 0.00 | 0.00 | 0.00 | 32 | 1016.3 |
| 20260503184936 | 16 | 191 | 3.2 | 14.5 | 0.00 | 0.00 | 0.00 | 32 | 1016.4 |
| 20260503183445 | 16 | 336 | 4.8 | 20.9 | 0.00 | 0.00 | 0.00 | 32 | 1016.6 |
| 20260503181942 | 15 | 294 | 8.0 | 17.7 | 0.00 | 0.00 | 0.00 | 32 | 1016.7 |
| 20260503180443 | 15 | 315 | 8.0 | 14.5 | 0.00 | 0.00 | 0.00 | 33 | 1016.8 |
| 20260503174942 | 15 | 285 | 4.8 | 11.3 | 0.00 | 0.00 | 0.00 | 32 | 1016.9 |
| 20260503173443 | 15 | 336 | 6.4 | 19.3 | 0.00 | 0.00 | 0.00 | 34 | 1017.0 |
| 20260503171936 | 15 | 32 | 6.4 | 17.7 | 0.00 | 0.00 | 0.00 | 32 | 1017.2 |
| 20260503170442 | 14 | 305 | 6.4 | 17.7 | 0.00 | 0.00 | 0.00 | 33 | 1017.4 |
| 20260503150443 | 12 | 355 | 8.0 | 17.7 | 0.00 | 0.00 | 0.00 | 40 | 1018.3 |
| 20260503130438 | 10 | 276 | 4.8 | 14.5 | 0.00 | 0.00 | 0.00 | 51 | 1018.6 |